Time,TemperatureF,DewpointF,PressureIn,WindDirection,WindDirectionDegrees,WindSpeedMPH,WindSpeedGustMPH,Humidity,HourlyPrecipIn,Conditions,Clouds,dailyrainin,SoftwareType,DateUTC
2013-05-29 00:03:00,63.2,49.5,29.85,SSW,203,0.0,0.0,61,0.00,,,0.00,WSDL version 430,2013-05-29 07:03:00,
2013-05-29 00:08:00,63.0,49.3,29.85,SSW,203,0.0,0.0,61,0.00,,,0.00,WSDL version 430,2013-05-29 07:08:00,
2013-05-29 00:13:00,63.0,49.2,29.84,SSW,203,0.0,0.0,61,0.00,,,0.00,WSDL version 430,2013-05-29 07:13:00,
2013-05-29 00:18:00,63.0,49.1,29.84,SSW,203,0.0,0.0,61,0.00,,,0.00,WSDL version 430,2013-05-29 07:18:00,
2013-05-29 00:23:00,62.8,48.7,29.84,SSW,203,0.0,0.0,60,0.00,,,0.00,WSDL version 430,2013-05-29 07:23:00,
2013-05-29 00:28:00,62.7,48.7,29.84,SSW,203,0.0,0.0,60,0.00,,,0.00,WSDL version 430,2013-05-29 07:28:00,
2013-05-29 00:33:00,62.6,49.0,29.84,SSW,203,0.0,0.0,61,0.00,,,0.00,WSDL version 430,2013-05-29 07:33:00,
2013-05-29 00:38:00,62.6,49.0,29.84,SSW,203,0.0,0.0,61,0.00,,,0.00,WSDL version 430,2013-05-29 07:38:00,
2013-05-29 00:43:00,62.5,48.8,29.84,SSW,203,0.0,0.0,61,0.00,,,0.00,WSDL version 430,2013-05-29 07:43:00,
2013-05-29 00:48:00,62.3,49.2,29.84,SSW,203,0.0,0.0,63,0.00,,,0.00,WSDL version 430,2013-05-29 07:48:00,
2013-05-29 00:53:00,62.2,49.4,29.83,SSW,203,0.0,0.0,63,0.00,,,0.00,WSDL version 430,2013-05-29 07:53:00,
2013-05-29 00:58:00,61.9,49.0,29.84,SSW,203,0.0,0.0,62,0.00,,,0.00,WSDL version 430,2013-05-29 07:58:00,
2013-05-29 01:03:00,61.6,48.5,29.84,SSW,203,0.0,0.0,62,0.00,,,0.00,WSDL version 430,2013-05-29 08:03:00,
2013-05-29 01:08:00,61.3,48.2,29.85,SSW,203,0.0,0.0,62,0.00,,,0.00,WSDL version 430,2013-05-29 08:08:00,
2013-05-29 01:13:00,61.1,48.2,29.85,SSW,203,0.0,0.0,62,0.00,,,0.00,WSDL version 430,2013-05-29 08:13:00,
2013-05-29 01:18:00,61.0,47.9,29.85,SSW,203,0.0,0.0,62,0.00,,,0.00,WSDL version 430,2013-05-29 08:18:00,
2013-05-29 01:23:00,60.8,47.8,29.84,SSW,203,0.0,0.0,62,0.00,,,0.00,WSDL version 430,2013-05-29 08:23:00,
2013-05-29 01:28:00,60.7,47.9,29.85,SSW,203,0.0,0.0,63,0.00,,,0.00,WSDL version 430,2013-05-29 08:28:00,
2013-05-29 01:34:00,60.4,48.2,29.84,SSW,203,0.0,0.0,64,0.00,,,0.00,WSDL version 430,2013-05-29 08:34:00,
2013-05-29 01:39:00,60.4,48.5,29.83,SSW,203,0.0,0.0,65,0.00,,,0.00,WSDL version 430,2013-05-29 08:39:00,
2013-05-29 01:44:00,60.1,48.3,29.84,SSW,203,0.0,0.0,65,0.00,,,0.00,WSDL version 430,2013-05-29 08:44:00,
2013-05-29 01:49:00,60.0,48.2,29.85,SSW,203,0.0,0.0,65,0.00,,,0.00,WSDL version 430,2013-05-29 08:49:00,
2013-05-29 01:55:00,59.8,48.0,29.85,SSW,203,0.0,0.0,65,0.00,,,0.00,WSDL version 430,2013-05-29 08:55:00,
2013-05-29 02:04:00,59.4,48.2,29.84,SSW,203,0.0,0.0,67,0.00,,,0.00,WSDL version 430,2013-05-29 09:04:00,
2013-05-29 02:09:00,59.4,48.4,29.84,SSW,203,0.0,0.0,67,0.00,,,0.00,WSDL version 430,2013-05-29 09:09:00,
2013-05-29 02:14:00,59.4,48.3,29.85,SSW,203,0.0,0.0,67,0.00,,,0.00,WSDL version 430,2013-05-29 09:14:00,
2013-05-29 02:19:00,59.4,48.0,29.84,SSW,203,0.0,0.0,66,0.00,,,0.00,WSDL version 430,2013-05-29 09:19:00,
2013-05-29 02:24:00,59.4,48.0,29.84,SSW,203,0.0,0.0,66,0.00,,,0.00,WSDL version 430,2013-05-29 09:24:00,
2013-05-29 02:29:00,59.3,47.8,29.84,SSW,203,0.0,0.0,66,0.00,,,0.00,WSDL version 430,2013-05-29 09:29:00,
2013-05-29 02:34:00,59.2,47.8,29.84,SSW,203,0.0,0.0,66,0.00,,,0.00,WSDL version 430,2013-05-29 09:34:00,
2013-05-29 02:39:00,59.2,48.0,29.84,SSW,203,0.0,0.0,67,0.00,,,0.00,WSDL version 430,2013-05-29 09:39:00,
2013-05-29 02:44:00,59.2,48.2,29.84,SSW,203,0.0,0.0,67,0.00,,,0.00,WSDL version 430,2013-05-29 09:44:00,
2013-05-29 02:49:00,59.3,48.4,29.83,SSW,203,0.0,0.0,67,0.00,,,0.00,WSDL version 430,2013-05-29 09:49:00,
2013-05-29 02:54:00,59.4,48.4,29.84,SSW,203,0.0,0.0,67,0.00,,,0.00,WSDL version 430,2013-05-29 09:54:00,
2013-05-29 02:59:00,59.4,48.4,29.84,SSW,203,0.0,0.0,67,0.00,,,0.00,WSDL version 430,2013-05-29 09:59:00,
2013-05-29 03:04:00,59.4,48.4,29.84,SSW,203,0.0,0.0,67,0.00,,,0.00,WSDL version 430,2013-05-29 10:04:00,
2013-05-29 03:09:00,59.4,48.7,29.84,SSW,203,0.0,0.0,68,0.00,,,0.00,WSDL version 430,2013-05-29 10:09:00,
2013-05-29 03:14:00,59.5,48.9,29.84,SSW,203,0.0,0.0,68,0.00,,,0.00,WSDL version 430,2013-05-29 10:14:00,
2013-05-29 03:19:00,59.5,49.0,29.84,SSW,203,0.0,0.0,68,0.00,,,0.00,WSDL version 430,2013-05-29 10:19:00,
2013-05-29 03:24:00,59.6,49.0,29.84,SSW,203,0.0,0.0,68,0.00,,,0.00,WSDL version 430,2013-05-29 10:24:00,
2013-05-29 03:29:00,59.7,49.1,29.83,SSW,203,0.0,0.0,68,0.00,,,0.00,WSDL version 430,2013-05-29 10:29:00,
2013-05-29 03:34:00,59.5,49.0,29.83,SSW,203,0.0,0.0,68,0.00,,,0.00,WSDL version 430,2013-05-29 10:34:00,
2013-05-29 03:39:00,59.7,49.1,29.83,SSW,203,0.0,0.0,68,0.00,,,0.00,WSDL version 430,2013-05-29 10:39:00,
2013-05-29 03:44:00,59.5,48.8,29.84,SSW,203,0.0,0.0,68,0.00,,,0.00,WSDL version 430,2013-05-29 10:44:00,
2013-05-29 03:49:00,59.5,48.9,29.83,SSW,203,0.0,0.0,67,0.00,,,0.00,WSDL version 430,2013-05-29 10:49:00,
2013-05-29 03:54:00,59.5,48.6,29.83,SSW,203,0.0,0.0,67,0.00,,,0.00,WSDL version 430,2013-05-29 10:54:00,
2013-05-29 03:59:00,59.5,48.6,29.83,SSW,203,0.0,0.0,67,0.00,,,0.00,WSDL version 430,2013-05-29 10:59:00,
2013-05-29 04:04:00,59.5,48.6,29.83,SSW,203,0.0,0.0,67,0.00,,,0.00,WSDL version 430,2013-05-29 11:04:00,
2013-05-29 04:09:00,59.5,48.5,29.83,SSW,203,0.0,0.0,66,0.00,,,0.00,WSDL version 430,2013-05-29 11:09:00,
2013-05-29 04:14:00,59.6,48.3,29.84,SSW,203,0.0,0.0,66,0.00,,,0.00,WSDL version 430,2013-05-29 11:14:00,
2013-05-29 04:19:00,59.7,48.2,29.84,SSW,203,0.0,0.0,66,0.00,,,0.00,WSDL version 430,2013-05-29 11:19:00,
2013-05-29 04:24:00,59.5,48.6,29.83,SSW,203,0.0,0.0,68,0.00,,,0.00,WSDL version 430,2013-05-29 11:24:00,
2013-05-29 04:29:00,59.2,48.9,29.83,SSW,203,0.0,0.0,69,0.00,,,0.00,WSDL version 430,2013-05-29 11:29:00,
2013-05-29 04:34:00,59.0,49.0,29.83,SSW,203,0.0,0.0,70,0.00,,,0.00,WSDL version 430,2013-05-29 11:34:00,
2013-05-29 04:39:00,58.8,49.3,29.84,SSW,203,0.0,0.0,72,0.00,,,0.00,WSDL version 430,2013-05-29 11:39:00,
2013-05-29 04:44:00,58.4,49.7,29.84,SSW,203,0.0,0.0,73,0.00,,,0.00,WSDL version 430,2013-05-29 11:44:00,
2013-05-29 04:49:00,58.1,49.6,29.84,SSW,203,0.0,0.0,74,0.00,,,0.00,WSDL version 430,2013-05-29 11:49:00,
2013-05-29 04:54:00,57.9,50.3,29.84,SSW,203,0.0,0.0,78,0.00,,,0.00,WSDL version 430,2013-05-29 11:54:00,
2013-05-29 04:59:00,57.5,50.9,29.84,SSW,203,0.0,0.0,79,0.00,,,0.00,WSDL version 430,2013-05-29 11:59:00,
2013-05-29 05:04:00,57.2,51.1,29.85,SSW,203,0.0,0.0,80,0.00,,,0.00,WSDL version 430,2013-05-29 12:04:00,
2013-05-29 05:09:00,57.0,51.7,29.84,SSW,203,0.0,0.0,84,0.00,,,0.00,WSDL version 430,2013-05-29 12:09:00,
2013-05-29 05:14:00,56.8,52.5,29.84,SSW,203,0.0,0.0,86,0.00,,,0.00,WSDL version 430,2013-05-29 12:14:00,
2013-05-29 05:19:00,56.7,52.4,29.84,SSW,203,0.0,0.0,86,0.00,,,0.00,WSDL version 430,2013-05-29 12:19:00,
2013-05-29 05:24:00,56.7,52.5,29.85,SSW,203,0.0,0.0,87,0.00,,,0.00,WSDL version 430,2013-05-29 12:24:00,
2013-05-29 05:29:00,56.8,52.8,29.85,SSW,203,0.0,0.0,87,0.00,,,0.00,WSDL version 430,2013-05-29 12:29:00,
2013-05-29 05:34:00,56.8,52.9,29.85,SSW,203,0.0,0.0,87,0.00,,,0.00,WSDL version 430,2013-05-29 12:34:00,
2013-05-29 05:39:00,56.7,52.9,29.85,SSW,203,0.0,0.0,88,0.00,,,0.00,WSDL version 430,2013-05-29 12:39:00,
2013-05-29 05:44:00,56.7,52.9,29.86,SSW,203,0.0,0.0,87,0.00,,,0.00,WSDL version 430,2013-05-29 12:44:00,
2013-05-29 05:49:00,56.7,52.7,29.86,SSW,203,0.0,0.0,87,0.00,,,0.00,WSDL version 430,2013-05-29 12:49:00,
2013-05-29 05:54:00,56.7,52.9,29.86,SSW,203,0.0,0.0,88,0.00,,,0.00,WSDL version 430,2013-05-29 12:54:00,
2013-05-29 05:59:00,56.7,52.9,29.85,SSW,203,0.0,0.0,87,0.00,,,0.00,WSDL version 430,2013-05-29 12:59:00,
2013-05-29 06:04:00,56.7,52.7,29.85,SSW,203,0.0,0.0,87,0.00,,,0.00,WSDL version 430,2013-05-29 13:04:00,
2013-05-29 06:09:00,56.7,53.0,29.85,SSW,203,0.0,0.0,87,0.00,,,0.00,WSDL version 430,2013-05-29 13:09:00,
2013-05-29 06:14:00,56.7,52.7,29.85,SSW,203,0.0,0.0,87,0.00,,,0.00,WSDL version 430,2013-05-29 13:14:00,
2013-05-29 06:19:00,56.6,52.8,29.84,SSW,203,0.0,0.0,87,0.00,,,0.00,WSDL version 430,2013-05-29 13:19:00,
2013-05-29 06:24:00,56.5,52.7,29.85,SSW,203,0.0,0.0,88,0.00,,,0.00,WSDL version 430,2013-05-29 13:24:00,
2013-05-29 06:29:00,56.5,53.0,29.85,SSW,203,0.0,0.0,89,0.00,,,0.00,WSDL version 430,2013-05-29 13:29:00,
2013-05-29 06:34:00,56.5,53.5,29.85,SSW,203,0.0,0.0,90,0.00,,,0.00,WSDL version 430,2013-05-29 13:34:00,
2013-05-29 06:39:00,56.5,53.2,29.85,SSW,203,0.0,0.0,88,0.00,,,0.00,WSDL version 430,2013-05-29 13:39:00,
2013-05-29 06:44:00,56.7,53.0,29.86,SSW,203,0.0,0.0,87,0.00,,,0.00,WSDL version 430,2013-05-29 13:44:00,
2013-05-29 06:49:00,57.0,52.9,29.86,SSW,203,0.0,0.0,86,0.00,,,0.00,WSDL version 430,2013-05-29 13:49:00,
2013-05-29 06:54:00,57.3,52.7,29.85,SSW,203,0.0,0.0,84,0.00,,,0.00,WSDL version 430,2013-05-29 13:54:00,
2013-05-29 06:59:00,57.6,52.6,29.85,SSW,203,0.0,0.0,83,0.00,,,0.00,WSDL version 430,2013-05-29 13:59:00,
2013-05-29 07:04:00,58.0,52.9,29.86,SSW,203,0.0,0.0,82,0.00,,,0.00,WSDL version 430,2013-05-29 14:04:00,
2013-05-29 07:09:00,58.7,52.7,29.86,SSW,203,0.0,0.0,80,0.00,,,0.00,WSDL version 430,2013-05-29 14:09:00,
2013-05-29 07:14:00,59.2,52.5,29.86,SSW,203,0.0,0.0,78,0.00,,,0.00,WSDL version 430,2013-05-29 14:14:00,
2013-05-29 07:19:00,59.5,51.7,29.86,SSW,203,0.0,0.0,74,0.00,,,0.00,WSDL version 430,2013-05-29 14:19:00,
2013-05-29 07:24:00,59.4,51.0,29.86,SSW,203,0.0,0.0,73,0.00,,,0.00,WSDL version 430,2013-05-29 14:24:00,
2013-05-29 07:29:00,59.2,51.1,29.87,SSW,203,0.0,0.0,74,0.00,,,0.00,WSDL version 430,2013-05-29 14:29:00,
2013-05-29 07:34:00,59.2,51.2,29.87,SSW,203,0.0,0.0,74,0.00,,,0.00,WSDL version 430,2013-05-29 14:34:00,
2013-05-29 07:39:00,59.2,50.6,29.87,SSW,203,0.0,0.0,74,0.00,,,0.00,WSDL version 430,2013-05-29 14:39:00,
2013-05-29 07:44:00,59.2,50.5,29.87,SSW,203,0.0,0.0,73,0.00,,,0.00,WSDL version 430,2013-05-29 14:44:00,
2013-05-29 07:49:00,60.1,51.3,29.87,SSW,203,0.0,0.0,73,0.00,,,0.00,WSDL version 430,2013-05-29 14:49:00,
2013-05-29 07:54:00,61.5,52.2,29.87,SSW,203,0.0,0.0,71,0.00,,,0.00,WSDL version 430,2013-05-29 14:54:00,
2013-05-29 07:59:00,61.3,50.8,29.87,SSW,203,0.0,0.0,68,0.00,,,0.00,WSDL version 430,2013-05-29 14:59:00,
2013-05-29 08:04:00,60.8,49.9,29.87,SSW,203,0.0,0.0,66,0.00,,,0.00,WSDL version 430,2013-05-29 15:04:00,
2013-05-29 08:14:00,62.7,50.7,29.87,SSW,203,0.0,0.0,63,0.00,,,0.00,WSDL version 430,2013-05-29 15:14:00,
2013-05-29 08:19:00,63.5,50.4,29.87,SSW,203,0.0,0.0,62,0.00,,,0.00,WSDL version 430,2013-05-29 15:19:00,
2013-05-29 08:24:00,64.3,49.9,29.87,SSW,203,0.0,0.0,58,0.00,,,0.00,WSDL version 430,2013-05-29 15:24:00,
2013-05-29 08:29:00,64.8,48.9,29.87,SSW,203,0.0,0.0,56,0.00,,,0.00,WSDL version 430,2013-05-29 15:29:00,
2013-05-29 08:34:00,65.6,48.5,29.87,SSW,203,0.0,0.0,52,0.00,,,0.00,WSDL version 430,2013-05-29 15:34:00,
2013-05-29 08:39:00,66.0,46.9,29.87,SSW,203,0.0,0.0,50,0.00,,,0.00,WSDL version 430,2013-05-29 15:39:00,
2013-05-29 08:44:00,66.1,46.4,29.87,SSW,203,0.0,0.0,48,0.00,,,0.00,WSDL version 430,2013-05-29 15:44:00,
2013-05-29 08:49:00,66.2,46.3,29.88,SSW,203,0.0,0.0,48,0.00,,,0.00,WSDL version 430,2013-05-29 15:49:00,
2013-05-29 08:54:00,66.5,46.1,29.88,SSW,203,0.0,0.0,47,0.00,,,0.00,WSDL version 430,2013-05-29 15:54:00,
2013-05-29 08:59:00,66.3,45.8,29.88,SSW,203,0.0,0.0,47,0.00,,,0.00,WSDL version 430,2013-05-29 15:59:00,
2013-05-29 09:04:00,66.4,45.5,29.88,SSW,203,0.0,0.0,47,0.00,,,0.00,WSDL version 430,2013-05-29 16:04:00,
2013-05-29 09:09:00,67.2,46.3,29.88,SSW,203,0.0,0.0,48,0.00,,,0.00,WSDL version 430,2013-05-29 16:09:00,
2013-05-29 09:14:00,67.9,47.1,29.88,SSW,203,0.0,0.0,47,0.00,,,0.00,WSDL version 430,2013-05-29 16:14:00,
2013-05-29 09:19:00,68.6,46.6,29.88,SSW,203,0.0,0.0,45,0.00,,,0.00,WSDL version 430,2013-05-29 16:19:00,
2013-05-29 09:24:00,68.9,46.4,29.88,SSW,203,0.0,0.0,44,0.00,,,0.00,WSDL version 430,2013-05-29 16:24:00,
2013-05-29 09:29:00,69.3,46.7,29.88,SSW,203,0.0,0.0,44,0.00,,,0.00,WSDL version 430,2013-05-29 16:29:00,
2013-05-29 09:34:00,70.3,48.1,29.87,SSW,203,0.0,0.0,46,0.00,,,0.00,WSDL version 430,2013-05-29 16:34:00,
2013-05-29 09:39:00,70.6,47.2,29.87,SSW,203,0.0,0.0,43,0.00,,,0.00,WSDL version 430,2013-05-29 16:39:00,
2013-05-29 09:44:00,70.8,46.9,29.88,SSW,203,0.0,0.0,42,0.00,,,0.00,WSDL version 430,2013-05-29 16:44:00,
2013-05-29 09:49:00,71.5,48.3,29.88,SSW,203,0.0,0.0,42,0.00,,,0.00,WSDL version 430,2013-05-29 16:49:00,
2013-05-29 09:54:00,71.7,46.8,29.88,SSW,203,0.0,0.0,40,0.00,,,0.00,WSDL version 430,2013-05-29 16:54:00,
2013-05-29 09:59:00,72.0,46.7,29.88,SSW,203,0.0,0.0,41,0.00,,,0.00,WSDL version 430,2013-05-29 16:59:00,
2013-05-29 10:04:00,72.5,47.6,29.88,SSW,203,0.0,0.0,40,0.00,,,0.00,WSDL version 430,2013-05-29 17:04:00,
2013-05-29 10:09:00,72.6,46.4,29.88,SSW,203,0.0,0.0,39,0.00,,,0.00,WSDL version 430,2013-05-29 17:09:00,
2013-05-29 10:14:00,72.3,47.2,29.88,SSW,203,0.0,0.0,42,0.00,,,0.00,WSDL version 430,2013-05-29 17:14:00,
2013-05-29 10:19:00,73.2,48.0,29.88,SSW,203,0.0,0.0,40,0.00,,,0.00,WSDL version 430,2013-05-29 17:19:00,
2013-05-29 10:24:00,73.2,47.5,29.88,SSW,203,0.0,0.0,41,0.00,,,0.00,WSDL version 430,2013-05-29 17:24:00,
2013-05-29 10:29:00,74.0,49.1,29.88,SSW,203,0.0,0.0,41,0.00,,,0.00,WSDL version 430,2013-05-29 17:29:00,
2013-05-29 10:34:00,74.8,48.5,29.88,SSW,203,0.0,0.0,38,0.00,,,0.00,WSDL version 430,2013-05-29 17:34:00,
2013-05-29 10:39:00,74.6,47.2,29.88,SSW,203,0.0,0.0,40,0.00,,,0.00,WSDL version 430,2013-05-29 17:39:00,
2013-05-29 10:44:00,74.6,47.9,29.88,SSW,203,0.0,0.0,39,0.00,,,0.00,WSDL version 430,2013-05-29 17:44:00,
2013-05-29 10:49:00,74.8,47.2,29.88,SSW,203,0.0,0.0,38,0.00,,,0.00,WSDL version 430,2013-05-29 17:49:00,
2013-05-29 10:54:00,75.3,46.9,29.88,SSW,203,0.0,0.0,36,0.00,,,0.00,WSDL version 430,2013-05-29 17:54:00,
2013-05-29 10:59:00,75.3,47.0,29.88,SSW,203,0.0,0.0,37,0.00,,,0.00,WSDL version 430,2013-05-29 17:59:00,
2013-05-29 11:04:00,73.7,47.5,29.88,SSW,203,0.0,0.0,40,0.00,,,0.00,WSDL version 430,2013-05-29 18:04:00,
2013-05-29 11:09:00,74.9,49.2,29.88,SSW,203,0.0,0.0,41,0.00,,,0.00,WSDL version 430,2013-05-29 18:09:00,
2013-05-29 11:14:00,76.3,48.5,29.88,SSW,203,0.0,0.0,38,0.00,,,0.00,WSDL version 430,2013-05-29 18:14:00,
2013-05-29 11:19:00,76.1,47.1,29.88,SSW,203,0.0,0.0,36,0.00,,,0.00,WSDL version 430,2013-05-29 18:19:00,
2013-05-29 11:24:00,75.4,46.9,29.87,SSW,203,0.0,0.0,36,0.00,,,0.00,WSDL version 430,2013-05-29 18:24:00,
2013-05-29 11:29:00,75.7,46.7,29.87,SSW,203,0.0,0.0,36,0.00,,,0.00,WSDL version 430,2013-05-29 18:29:00,
2013-05-29 11:34:00,76.4,46.8,29.87,SSW,203,0.0,0.0,34,0.00,,,0.00,WSDL version 430,2013-05-29 18:34:00,
2013-05-29 11:39:00,76.3,47.5,29.87,SSW,203,0.0,0.0,36,0.00,,,0.00,WSDL version 430,2013-05-29 18:39:00,
2013-05-29 11:44:00,75.5,47.6,29.87,SSW,203,0.0,0.0,39,0.00,,,0.00,WSDL version 430,2013-05-29 18:44:00,
2013-05-29 11:49:00,77.2,48.5,29.87,SSW,203,0.0,0.0,35,-99.99,,,-99.99,WSDL version 430,2013-05-29 18:49:00,
2013-05-29 11:54:00,77.9,46.8,29.87,SSW,203,0.0,0.0,33,0.00,,,0.00,WSDL version 430,2013-05-29 18:54:00,
2013-05-29 11:59:00,77.8,47.8,29.87,SSW,203,0.0,0.0,35,0.00,,,0.00,WSDL version 430,2013-05-29 18:59:00,
2013-05-29 12:04:00,78.2,48.0,29.87,SSW,203,0.0,0.0,34,0.00,,,0.00,WSDL version 430,2013-05-29 19:04:00,
2013-05-29 12:09:00,78.2,47.4,29.86,SSW,203,0.0,0.0,34,0.00,,,0.00,WSDL version 430,2013-05-29 19:09:00,
2013-05-29 12:14:00,78.7,47.4,29.86,SSW,203,0.0,0.0,32,0.00,,,0.00,WSDL version 430,2013-05-29 19:14:00,
2013-05-29 12:19:00,78.6,45.9,29.86,SSW,203,0.0,0.0,32,0.00,,,0.00,WSDL version 430,2013-05-29 19:19:00,
2013-05-29 12:24:00,79.1,47.2,29.86,SSW,203,0.0,0.0,32,0.00,,,0.00,WSDL version 430,2013-05-29 19:24:00,
2013-05-29 12:29:00,79.3,46.5,29.86,SSW,203,0.0,0.0,31,0.00,,,0.00,WSDL version 430,2013-05-29 19:29:00,
2013-05-29 12:34:00,79.3,46.5,29.86,SSW,203,0.0,0.0,32,0.00,,,0.00,WSDL version 430,2013-05-29 19:34:00,
2013-05-29 12:39:00,79.4,46.7,29.86,SSW,203,0.0,0.0,32,0.00,,,0.00,WSDL version 430,2013-05-29 19:39:00,
2013-05-29 12:44:00,79.4,46.7,29.86,SSW,203,0.0,0.0,31,0.00,,,0.00,WSDL version 430,2013-05-29 19:44:00,
2013-05-29 12:49:00,79.8,46.0,29.86,SSW,203,0.0,0.0,30,0.00,,,0.00,WSDL version 430,2013-05-29 19:49:00,
2013-05-29 12:54:00,79.3,45.2,29.86,SSW,203,0.0,0.0,30,0.00,,,0.00,WSDL version 430,2013-05-29 19:54:00,
2013-05-29 12:59:00,78.1,44.9,29.85,SSW,203,0.0,0.0,31,0.00,,,0.00,WSDL version 430,2013-05-29 19:59:00,
2013-05-29 13:04:00,79.7,46.4,29.85,SSW,203,0.0,0.0,31,0.00,,,0.00,WSDL version 430,2013-05-29 20:04:00,
2013-05-29 13:09:00,80.7,46.4,29.85,SSW,203,0.0,0.0,30,0.00,,,0.00,WSDL version 430,2013-05-29 20:09:00,
2013-05-29 13:14:00,81.0,46.6,29.85,SSW,203,0.0,0.0,30,0.00,,,0.00,WSDL version 430,2013-05-29 20:14:00,
2013-05-29 13:19:00,81.3,46.8,29.85,SSW,203,0.0,0.0,30,0.00,,,0.00,WSDL version 430,2013-05-29 20:19:00,
2013-05-29 13:24:00,81.8,46.5,29.84,SSW,203,0.0,0.0,30,0.00,,,0.00,WSDL version 430,2013-05-29 20:24:00,
2013-05-29 13:29:00,82.0,46.4,29.84,SSW,203,0.0,0.0,29,0.00,,,0.00,WSDL version 430,2013-05-29 20:29:00,
2013-05-29 13:34:00,81.9,45.7,29.84,SSW,203,0.0,0.0,28,0.00,,,0.00,WSDL version 430,2013-05-29 20:34:00,
2013-05-29 13:39:00,81.2,43.9,29.84,SSW,203,0.0,0.0,27,0.00,,,0.00,WSDL version 430,2013-05-29 20:39:00,
2013-05-29 13:44:00,80.8,45.3,29.84,SSW,203,0.0,0.0,29,0.00,,,0.00,WSDL version 430,2013-05-29 20:44:00,
2013-05-29 13:49:00,80.5,45.7,29.84,SSW,203,0.0,0.0,30,0.00,,,0.00,WSDL version 430,2013-05-29 20:49:00,
2013-05-29 13:54:00,81.3,46.6,29.84,SSW,203,0.0,0.0,30,0.00,,,0.00,WSDL version 430,2013-05-29 20:54:00,
2013-05-29 13:59:00,81.9,46.8,29.83,SSW,203,0.0,0.0,29,0.00,,,0.00,WSDL version 430,2013-05-29 20:59:00,
2013-05-29 14:04:00,81.6,44.6,29.84,SSW,203,0.0,0.0,28,0.00,,,0.00,WSDL version 430,2013-05-29 21:04:00,
2013-05-29 14:09:00,81.8,43.2,29.84,SSW,203,0.0,0.0,25,0.00,,,0.00,WSDL version 430,2013-05-29 21:09:00,
2013-05-29 14:14:00,81.1,41.2,29.84,SSW,203,0.0,0.0,24,0.00,,,0.00,WSDL version 430,2013-05-29 21:14:00,
2013-05-29 14:19:00,81.3,42.4,29.83,SSW,203,0.0,0.0,27,0.00,,,0.00,WSDL version 430,2013-05-29 21:19:00,
2013-05-29 14:24:00,81.8,44.1,29.83,SSW,203,0.0,0.0,26,0.00,,,0.00,WSDL version 430,2013-05-29 21:24:00,
2013-05-29 14:29:00,81.6,43.8,29.83,SSW,203,0.0,0.0,26,0.00,,,0.00,WSDL version 430,2013-05-29 21:29:00,
2013-05-29 14:34:00,81.3,42.8,29.83,SSW,203,0.0,0.0,25,0.00,,,0.00,WSDL version 430,2013-05-29 21:34:00,
2013-05-29 14:39:00,80.9,42.3,29.83,SSW,203,0.0,0.0,25,0.00,,,0.00,WSDL version 430,2013-05-29 21:39:00,
2013-05-29 14:44:00,80.5,41.3,29.83,SSW,203,0.0,0.0,26,0.00,,,0.00,WSDL version 430,2013-05-29 21:44:00,
2013-05-29 14:49:00,80.9,43.2,29.83,SSW,203,0.0,0.0,27,0.00,,,0.00,WSDL version 430,2013-05-29 21:49:00,
2013-05-29 14:54:00,80.4,42.6,29.83,SSW,203,0.0,0.0,26,0.00,,,0.00,WSDL version 430,2013-05-29 21:54:00,
2013-05-29 14:59:00,80.5,42.6,29.83,SSW,203,0.0,0.0,25,0.00,,,0.00,WSDL version 430,2013-05-29 21:59:00,
2013-05-29 15:04:00,80.3,41.5,29.83,SSW,203,0.0,0.0,25,0.00,,,0.00,WSDL version 430,2013-05-29 22:04:00,
2013-05-29 15:09:00,80.3,42.5,29.83,SSW,203,0.0,0.0,26,0.00,,,0.00,WSDL version 430,2013-05-29 22:09:00,
2013-05-29 15:14:00,80.7,42.6,29.83,SSW,203,0.0,0.0,26,0.00,,,0.00,WSDL version 430,2013-05-29 22:14:00,
2013-05-29 15:19:00,80.7,41.7,29.83,SSW,203,0.0,0.0,25,0.00,,,0.00,WSDL version 430,2013-05-29 22:19:00,
2013-05-29 15:24:00,80.5,41.1,29.82,SSW,203,0.0,0.0,26,0.00,,,0.00,WSDL version 430,2013-05-29 22:24:00,
2013-05-29 15:29:00,80.5,41.5,29.82,SSW,203,0.0,0.0,25,0.00,,,0.00,WSDL version 430,2013-05-29 22:29:00,
2013-05-29 15:34:00,80.1,41.1,29.82,SSW,203,0.0,0.0,25,0.00,,,0.00,WSDL version 430,2013-05-29 22:34:00,
2013-05-29 15:39:00,80.0,40.5,29.82,SSW,203,0.0,0.0,25,0.00,,,0.00,WSDL version 430,2013-05-29 22:39:00,
2013-05-29 15:44:00,79.9,40.7,29.82,SSW,203,0.0,0.0,25,0.00,,,0.00,WSDL version 430,2013-05-29 22:44:00,
2013-05-29 15:49:00,80.1,40.9,29.82,SSW,203,0.0,0.0,24,0.00,,,0.00,WSDL version 430,2013-05-29 22:49:00,
2013-05-29 15:54:00,80.2,40.2,29.82,SSW,203,0.0,0.0,23,0.00,,,0.00,WSDL version 430,2013-05-29 22:54:00,
2013-05-29 15:59:00,80.5,40.3,29.82,SSW,203,0.0,0.0,23,0.00,,,0.00,WSDL version 430,2013-05-29 22:59:00,
2013-05-29 16:04:00,80.7,39.8,29.81,SSW,203,0.0,0.0,23,0.00,,,0.00,WSDL version 430,2013-05-29 23:04:00,
2013-05-29 16:09:00,80.3,38.6,29.81,SSW,203,0.0,0.0,22,0.00,,,0.00,WSDL version 430,2013-05-29 23:09:00,
2013-05-29 16:14:00,80.0,38.7,29.81,SSW,203,0.0,0.0,23,0.00,,,0.00,WSDL version 430,2013-05-29 23:14:00,
2013-05-29 16:19:00,80.7,38.8,29.81,SSW,203,0.0,0.0,22,0.00,,,0.00,WSDL version 430,2013-05-29 23:19:00,
2013-05-29 16:24:00,80.8,38.4,29.81,SSW,203,0.0,0.0,22,0.00,,,0.00,WSDL version 430,2013-05-29 23:24:00,
2013-05-29 16:29:00,81.1,38.5,29.81,SSW,203,0.0,0.0,22,0.00,,,0.00,WSDL version 430,2013-05-29 23:29:00,
2013-05-29 16:34:00,81.0,37.5,29.81,SSW,203,0.0,0.0,21,0.00,,,0.00,WSDL version 430,2013-05-29 23:34:00,
2013-05-29 16:39:00,80.8,37.7,29.81,SSW,203,0.0,0.0,22,0.00,,,0.00,WSDL version 430,2013-05-29 23:39:00,
2013-05-29 16:44:00,81.0,37.8,29.81,SSW,203,0.0,0.0,21,0.00,,,0.00,WSDL version 430,2013-05-29 23:44:00,
2013-05-29 16:54:00,80.4,37.9,29.80,SSW,203,0.0,0.0,22,0.00,,,0.00,WSDL version 430,2013-05-29 23:54:00,
2013-05-29 16:59:00,80.3,38.3,29.80,SSW,203,0.0,0.0,22,0.00,,,0.00,WSDL version 430,2013-05-29 23:59:00,
2013-05-29 17:04:00,80.6,38.3,29.80,SSW,203,0.0,0.0,22,0.00,,,0.00,WSDL version 430,2013-05-30 00:04:00,
2013-05-29 17:09:00,80.6,38.3,29.80,SSW,203,0.0,0.0,22,0.00,,,0.00,WSDL version 430,2013-05-30 00:09:00,
2013-05-29 17:14:00,80.6,38.3,29.80,SSW,203,0.0,0.0,22,0.00,,,0.00,WSDL version 430,2013-05-30 00:14:00,
2013-05-29 17:19:00,80.6,38.3,29.80,SSW,203,0.0,0.0,22,0.00,,,0.00,WSDL version 430,2013-05-30 00:19:00,
2013-05-29 17:24:00,80.7,38.2,29.80,SSW,203,0.0,0.0,21,0.00,,,0.00,WSDL version 430,2013-05-30 00:24:00,
2013-05-29 17:29:00,80.3,37.6,29.80,SSW,203,0.0,0.0,22,0.00,,,0.00,WSDL version 430,2013-05-30 00:29:00,
2013-05-29 17:34:00,80.1,37.0,29.80,SSW,203,0.0,0.0,21,0.00,,,0.00,WSDL version 430,2013-05-30 00:34:00,
2013-05-29 17:39:00,80.0,37.5,29.80,SSW,203,0.0,0.0,22,0.00,,,0.00,WSDL version 430,2013-05-30 00:39:00,
2013-05-29 17:44:00,80.0,37.7,29.80,SSW,203,0.0,0.0,22,0.00,,,0.00,WSDL version 430,2013-05-30 00:44:00,
2013-05-29 17:49:00,79.8,37.6,29.80,SSW,203,0.0,0.0,22,0.00,,,0.00,WSDL version 430,2013-05-30 00:49:00,
2013-05-29 17:54:00,79.9,37.7,29.80,SSW,203,0.0,0.0,22,0.00,,,0.00,WSDL version 430,2013-05-30 00:54:00,
2013-05-29 17:59:00,80.3,37.8,29.79,SSW,203,0.0,0.0,21,0.00,,,0.00,WSDL version 430,2013-05-30 00:59:00,
2013-05-29 18:04:00,80.7,37.6,29.79,SSW,203,0.0,0.0,22,0.00,,,0.00,WSDL version 430,2013-05-30 01:04:00,
2013-05-29 18:09:00,80.7,37.6,29.79,SSW,203,0.0,0.0,21,0.00,,,0.00,WSDL version 430,2013-05-30 01:09:00,
2013-05-29 18:14:00,80.4,38.1,29.79,SSW,203,0.0,0.0,22,0.00,,,0.00,WSDL version 430,2013-05-30 01:14:00,
2013-05-29 18:19:00,80.4,38.1,29.80,SSW,203,0.0,0.0,22,0.00,,,0.00,WSDL version 430,2013-05-30 01:19:00,
2013-05-29 18:24:00,80.4,38.1,29.79,SSW,203,0.0,0.0,22,0.00,,,0.00,WSDL version 430,2013-05-30 01:24:00,
2013-05-29 18:29:00,80.4,38.4,29.79,SSW,203,0.0,0.0,22,0.00,,,0.00,WSDL version 430,2013-05-30 01:29:00,
2013-05-29 18:34:00,80.6,38.3,29.80,SSW,203,0.0,0.0,22,0.00,,,0.00,WSDL version 430,2013-05-30 01:34:00,
2013-05-29 18:39:00,80.4,38.1,29.80,SSW,203,0.0,0.0,22,0.00,,,0.00,WSDL version 430,2013-05-30 01:39:00,
2013-05-29 18:44:00,80.2,38.0,29.80,SSW,203,0.0,0.0,22,0.00,,,0.00,WSDL version 430,2013-05-30 01:44:00,
2013-05-29 18:49:00,80.2,38.9,29.80,SSW,203,0.0,0.0,23,0.00,,,0.00,WSDL version 430,2013-05-30 01:49:00,
2013-05-29 18:54:00,80.3,38.1,29.80,SSW,203,0.0,0.0,22,0.00,,,0.00,WSDL version 430,2013-05-30 01:54:00,
2013-05-29 18:59:00,80.2,38.0,29.80,SSW,203,0.0,0.0,22,0.00,,,0.00,WSDL version 430,2013-05-30 01:59:00,
2013-05-29 19:04:00,80.0,37.8,29.80,SSW,203,0.0,0.0,22,0.00,,,0.00,WSDL version 430,2013-05-30 02:04:00,
2013-05-29 19:09:00,80.1,37.8,29.80,SSW,203,0.0,0.0,22,0.00,,,0.00,WSDL version 430,2013-05-30 02:09:00,
2013-05-29 19:14:00,79.8,37.6,29.80,SSW,203,0.0,0.0,22,0.00,,,0.00,WSDL version 430,2013-05-30 02:14:00,
2013-05-29 19:19:00,79.6,37.4,29.80,SSW,203,0.0,0.0,22,0.00,,,0.00,WSDL version 430,2013-05-30 02:19:00,
2013-05-29 19:24:00,79.1,37.0,29.80,SSW,203,0.0,0.0,22,0.00,,,0.00,WSDL version 430,2013-05-30 02:24:00,
2013-05-29 19:29:00,78.7,36.7,29.80,SSW,203,0.0,0.0,22,0.00,,,0.00,WSDL version 430,2013-05-30 02:29:00,
2013-05-29 19:34:00,78.1,37.5,29.80,SSW,203,0.0,0.0,24,0.00,,,0.00,WSDL version 430,2013-05-30 02:34:00,
2013-05-29 19:39:00,77.1,38.1,29.80,SSW,203,0.0,0.0,26,0.00,,,0.00,WSDL version 430,2013-05-30 02:39:00,
2013-05-29 19:44:00,76.1,41.7,29.80,SSW,203,0.0,0.0,31,0.00,,,0.00,WSDL version 430,2013-05-30 02:44:00,
2013-05-29 19:49:00,75.1,42.9,29.81,SSW,203,0.0,0.0,32,0.00,,,0.00,WSDL version 430,2013-05-30 02:49:00,
2013-05-29 19:54:00,74.1,43.1,29.81,SSW,203,0.0,0.0,33,0.00,,,0.00,WSDL version 430,2013-05-30 02:54:00,
2013-05-29 19:59:00,73.4,43.0,29.81,SSW,203,0.0,0.0,34,0.00,,,0.00,WSDL version 430,2013-05-30 02:59:00,
2013-05-29 20:04:00,72.9,43.4,29.81,SSW,203,0.0,0.0,35,0.00,,,0.00,WSDL version 430,2013-05-30 03:04:00,
2013-05-29 20:09:00,72.2,43.1,29.81,SSW,203,0.0,0.0,35,0.00,,,0.00,WSDL version 430,2013-05-30 03:09:00,
2013-05-29 20:14:00,71.7,42.7,29.81,SSW,203,0.0,0.0,35,0.00,,,0.00,WSDL version 430,2013-05-30 03:14:00,
2013-05-29 20:19:00,71.2,42.9,29.81,SSW,203,0.0,0.0,36,0.00,,,0.00,WSDL version 430,2013-05-30 03:19:00,
2013-05-29 20:24:00,70.5,42.5,29.82,SSW,203,0.0,0.0,36,0.00,,,0.00,WSDL version 430,2013-05-30 03:24:00,
2013-05-29 20:29:00,70.1,42.2,29.82,SSW,203,0.0,0.0,37,0.00,,,0.00,WSDL version 430,2013-05-30 03:29:00,
2013-05-29 20:34:00,69.7,42.4,29.82,SSW,203,0.0,0.0,38,0.00,,,0.00,WSDL version 430,2013-05-30 03:34:00,
2013-05-29 20:39:00,69.3,42.7,29.82,SSW,203,0.0,0.0,38,0.00,,,0.00,WSDL version 430,2013-05-30 03:39:00,
2013-05-29 20:44:00,69.0,43.8,29.82,SSW,203,0.0,0.0,42,0.00,,,0.00,WSDL version 430,2013-05-30 03:44:00,
2013-05-29 20:49:00,68.8,44.1,29.82,SSW,203,0.0,0.0,41,0.00,,,0.00,WSDL version 430,2013-05-30 03:49:00,
2013-05-29 20:54:00,68.4,43.2,29.82,SSW,203,0.0,0.0,40,0.00,,,0.00,WSDL version 430,2013-05-30 03:54:00,
2013-05-29 20:59:00,68.0,43.2,29.82,SSW,203,0.0,0.0,41,0.00,,,0.00,WSDL version 430,2013-05-30 03:59:00,
2013-05-29 21:04:00,67.8,44.5,29.82,SSW,203,0.0,0.0,43,0.00,,,0.00,WSDL version 430,2013-05-30 04:04:00,
2013-05-29 21:09:00,67.6,43.8,29.82,SSW,203,0.0,0.0,42,0.00,,,0.00,WSDL version 430,2013-05-30 04:09:00,
2013-05-29 21:14:00,67.1,43.8,29.82,SSW,203,0.0,0.0,43,0.00,,,0.00,WSDL version 430,2013-05-30 04:14:00,
2013-05-29 21:19:00,66.9,44.5,29.83,SSW,203,0.0,0.0,44,0.00,,,0.00,WSDL version 430,2013-05-30 04:19:00,
2013-05-29 21:24:00,66.8,44.2,29.83,SSW,203,0.0,0.0,44,0.00,,,0.00,WSDL version 430,2013-05-30 04:24:00,
2013-05-29 21:29:00,66.3,43.8,29.83,SSW,203,0.0,0.0,44,0.00,,,0.00,WSDL version 430,2013-05-30 04:29:00,
2013-05-29 21:34:00,66.0,44.0,29.83,SSW,203,0.0,0.0,45,0.00,,,0.00,WSDL version 430,2013-05-30 04:34:00,
2013-05-29 21:39:00,65.8,43.9,29.83,SSW,203,0.0,0.0,45,0.00,,,0.00,WSDL version 430,2013-05-30 04:39:00,
2013-05-29 21:44:00,65.5,43.6,29.83,SSW,203,0.0,0.0,45,0.00,,,0.00,WSDL version 430,2013-05-30 04:44:00,
2013-05-29 21:49:00,65.5,44.2,29.84,SSW,203,0.0,0.0,46,0.00,,,0.00,WSDL version 430,2013-05-30 04:49:00,
2013-05-29 21:54:00,65.1,43.8,29.84,SSW,203,0.0,0.0,46,0.00,,,0.00,WSDL version 430,2013-05-30 04:54:00,
2013-05-29 21:59:00,64.9,43.8,29.84,SSW,203,0.0,0.0,47,0.00,,,0.00,WSDL version 430,2013-05-30 04:59:00,
2013-05-29 22:04:00,64.8,44.2,29.84,SSW,203,0.0,0.0,47,0.00,,,0.00,WSDL version 430,2013-05-30 05:04:00,
2013-05-29 22:09:00,64.6,44.1,29.84,SSW,203,0.0,0.0,48,0.00,,,0.00,WSDL version 430,2013-05-30 05:09:00,
2013-05-29 22:14:00,64.3,44.2,29.84,SSW,203,0.0,0.0,48,0.00,,,0.00,WSDL version 430,2013-05-30 05:14:00,
2013-05-29 22:19:00,63.9,43.9,29.84,SSW,203,0.0,0.0,48,0.00,,,0.00,WSDL version 430,2013-05-30 05:19:00,
2013-05-29 22:24:00,63.9,44.1,29.85,SSW,203,0.0,0.0,49,0.00,,,0.00,WSDL version 430,2013-05-30 05:24:00,
2013-05-29 22:29:00,63.9,45.6,29.85,SSW,203,0.0,0.0,52,0.00,,,0.00,WSDL version 430,2013-05-30 05:29:00,
2013-05-29 22:34:00,63.9,46.3,29.85,SSW,203,0.0,0.0,53,0.00,,,0.00,WSDL version 430,2013-05-30 05:34:00,
2013-05-29 22:39:00,63.7,45.9,29.85,SSW,203,0.0,0.0,53,0.00,,,0.00,WSDL version 430,2013-05-30 05:39:00,
2013-05-29 22:44:00,63.5,45.2,29.85,SSW,203,0.0,0.0,51,0.00,,,0.00,WSDL version 430,2013-05-30 05:44:00,
2013-05-29 22:49:00,63.2,44.9,29.85,SSW,203,0.0,0.0,52,0.00,,,0.00,WSDL version 430,2013-05-30 05:49:00,
2013-05-29 22:54:00,63.0,45.1,29.85,SSW,203,0.0,0.0,52,0.00,,,0.00,WSDL version 430,2013-05-30 05:54:00,
2013-05-29 22:59:00,62.7,44.9,29.85,SSW,203,0.0,0.0,52,0.00,,,0.00,WSDL version 430,2013-05-30 05:59:00,
2013-05-29 23:04:00,62.8,45.4,29.85,SSW,203,0.0,0.0,53,0.00,,,0.00,WSDL version 430,2013-05-30 06:04:00,
2013-05-29 23:09:00,62.9,46.3,29.85,SSW,203,0.0,0.0,54,0.00,,,0.00,WSDL version 430,2013-05-30 06:09:00,
2013-05-29 23:14:00,62.7,45.8,29.85,SSW,203,0.0,0.0,53,0.00,,,0.00,WSDL version 430,2013-05-30 06:14:00,
2013-05-29 23:19:00,62.4,45.2,29.85,SSW,203,0.0,0.0,53,0.00,,,0.00,WSDL version 430,2013-05-30 06:19:00,
2013-05-29 23:24:00,62.0,45.0,29.85,SSW,203,0.0,0.0,54,0.00,,,0.00,WSDL version 430,2013-05-30 06:24:00,
2013-05-29 23:29:00,61.7,44.8,29.85,SSW,203,0.0,0.0,54,0.00,,,0.00,WSDL version 430,2013-05-30 06:29:00,
2013-05-29 23:34:00,61.5,44.8,29.85,SSW,203,0.0,0.0,55,0.00,,,0.00,WSDL version 430,2013-05-30 06:34:00,
2013-05-29 23:39:00,61.3,44.7,29.85,SSW,203,0.0,0.0,54,0.00,,,0.00,WSDL version 430,2013-05-30 06:39:00,
2013-05-29 23:44:00,61.2,45.0,29.85,SSW,203,0.0,0.0,56,0.00,,,0.00,WSDL version 430,2013-05-30 06:44:00,
2013-05-29 23:49:00,61.2,45.5,29.85,SSW,203,0.0,0.0,57,0.00,,,0.00,WSDL version 430,2013-05-30 06:49:00,
2013-05-29 23:54:00,61.2,45.8,29.85,SSW,203,0.0,0.0,57,0.00,,,0.00,WSDL version 430,2013-05-30 06:54:00,
2013-05-29 23:59:00,61.0,45.5,29.85,SSW,203,0.0,0.0,57,0.00,,,0.00,WSDL version 430,2013-05-30 06:59:00,